Weather History for Dublin, Ireland

Change the Weather History Date:

Saturday, November 10, 2012

  Actual Average Record
Temperature  
Mean Temperature 40 °F -  
Max Temperature 46 °F 49 °F 57 °F (2003)
Min Temperature 35 °F 39 °F 30 °F (1996)
Degree Days  
Heating Degree Days 24    
Moisture  
Dew Point 37 °F    
Average Humidity 87    
Maximum Humidity 100    
Minimum Humidity 71    
Precipitation  
Precipitation 0.00 in 0.09 in - ()
Sea Level Pressure  
Sea Level Pressure 29.40 in    
Wind  
Wind Speed 11 mph ()    
Max Wind Speed 18 mph    
Max Gust Speed -    
Visibility 6.7 miles    
Events      
Averages and records for this station are not official NWS values.
T = Trace of Precipitation, MM = Missing Value Source: Averaged Metar Reports

Daily Weather History Graph

Daily Weather History Graph

Search for Another Location

Airport:

Trip Planner

Search our weather history database for the weather conditions in past years. The results will help you decide how hot, cold, wet, or windy it might be!

Date:

Astronomy

Nov. 10, 2012 Rise Set
Actual Time 7:41 AM GMT 4:35 PM GMT
Civil Twilight 7:03 AM GMT 5:14 PM GMT
Nautical Twilight 6:21 AM GMT 5:56 PM GMT
Astronomical Twilight 5:40 AM GMT 6:36 PM GMT
Moon 3:00 AM GMT (11/10) 2:41 PM GMT (11/10)
Length of Visible Light 10h 10m
Length of Day
8h 53m
Waning Crescent, 16% of the Moon is Illuminated
Nov 10
Waning Crescent
Nov 13
New
Nov 20
First Quarter
Nov 28
Full
Dec 6
Last Quarter

Hourly Weather History & Observations

Time (GMT) Temp. Windchill Dew Point Humidity Pressure Visibility Wind Dir Wind Speed Gust Speed Precip Events Conditions
12:00 AM 42 °F - 38 °F 79% 29.43 in 25 mi WSW 13.4 mph - -   Scattered Clouds
12:00 AM 41.0 °F 33.9 °F 37.4 °F 87% 29.42 in 6.2 mi WSW 12.7 mph - N/A   Scattered Clouds
12:30 AM 41.0 °F 34.3 °F 37.4 °F 87% 29.42 in 6.2 mi SW 11.5 mph - N/A   Mostly Cloudy
1:00 AM 41.0 °F 34.7 °F 37.4 °F 87% 29.42 in 6.2 mi SW 10.4 mph - N/A   Mostly Cloudy
1:30 AM 41.0 °F 34.3 °F 37.4 °F 87% 29.39 in 6.2 mi SW 11.5 mph - N/A   Mostly Cloudy
2:00 AM 41.0 °F 34.3 °F 37.4 °F 87% 29.39 in 6.2 mi SW 11.5 mph - N/A   Mostly Cloudy
2:30 AM 39.2 °F 32.0 °F 37.4 °F 93% 29.39 in 6.2 mi SW 11.5 mph - N/A   Mostly Cloudy
3:00 AM 41.0 °F 33.9 °F 37.4 °F 87% 29.39 in 6.2 mi SW 12.7 mph - N/A   Mostly Cloudy
3:30 AM 39.2 °F 32.5 °F 37.4 °F 93% 29.39 in 6.2 mi SW 10.4 mph - N/A   Mostly Cloudy
4:00 AM 39.2 °F 32.0 °F 37.4 °F 93% 29.36 in 6.2 mi SW 11.5 mph - N/A   Mostly Cloudy
4:30 AM 39.2 °F 32.5 °F 35.6 °F 87% 29.36 in 6.2 mi SW 10.4 mph - N/A   Mostly Cloudy
5:00 AM 39.2 °F 32.5 °F 35.6 °F 87% 29.36 in 6.2 mi SW 10.4 mph - N/A   Partly Cloudy
5:30 AM 39.2 °F 33.0 °F 35.6 °F 87% 29.36 in 6.2 mi SW 9.2 mph - N/A   Partly Cloudy
6:00 AM 39 °F - 36 °F 84% 29.37 in 25 mi SW 11.2 mph - -   Scattered Clouds
6:00 AM 39.2 °F 32.5 °F 35.6 °F 87% 29.36 in 6.2 mi SW 10.4 mph - N/A   Partly Cloudy
6:30 AM 39.2 °F 33.0 °F 35.6 °F 87% 29.36 in 6.2 mi SW 9.2 mph - N/A   Partly Cloudy
7:00 AM 39.2 °F 33.0 °F 35.6 °F 87% 29.33 in 6.2 mi SW 9.2 mph - N/A   Partly Cloudy
7:30 AM 39.2 °F 33.6 °F 35.6 °F 87% 29.33 in 6.2 mi SW 8.1 mph - N/A   Partly Cloudy
8:00 AM 39.2 °F 33.0 °F 35.6 °F 87% 29.33 in 6.2 mi SSW 9.2 mph - N/A   Partly Cloudy
8:30 AM 41.0 °F 34.7 °F 37.4 °F 87% 29.33 in 6.2 mi SW 10.4 mph - N/A   Scattered Clouds
9:00 AM 41.0 °F 33.9 °F 37.4 °F 87% 29.33 in 6.2 mi SW 12.7 mph - N/A   Mostly Cloudy
9:30 AM 41.0 °F 33.1 °F 39.2 °F 93% 29.33 in 6.2 mi WSW 15.0 mph - N/A   Mostly Cloudy
10:00 AM 42.8 °F 36.2 °F 39.2 °F 87% 29.33 in 6.2 mi WSW 12.7 mph - N/A   Light Drizzle
10:30 AM 42.8 °F 35.4 °F 39.2 °F 87% 29.36 in 6.2 mi WSW 15.0 mph - N/A   Light Drizzle
11:00 AM 42.8 °F 35.4 °F 41.0 °F 93% 29.36 in 6.2 mi WSW 15.0 mph - N/A   Mostly Cloudy
11:30 AM 42.8 °F 35.4 °F 41.0 °F 93% 29.36 in 6.2 mi West 15.0 mph - N/A   Mostly Cloudy
12:00 PM 44 °F - 41 °F 84% 29.37 in 16 mi West 17.9 mph - -   Partly Cloudy
12:00 PM 42.8 °F 34.5 °F 41.0 °F 93% 29.36 in 6.2 mi West 18.4 mph - N/A   Mostly Cloudy
12:30 PM 44.6 °F 37.2 °F 41.0 °F 87% 29.36 in 6.2 mi West 17.3 mph - N/A   Mostly Cloudy
1:00 PM 44.6 °F 37.2 °F 39.2 °F 81% 29.36 in 6.2 mi West 17.3 mph - N/A   Mostly Cloudy
1:30 PM 46.4 °F 39.8 °F 39.2 °F 76% 29.36 in 6.2 mi West 16.1 mph - N/A   Mostly Cloudy
2:00 PM 44.6 °F 38.4 °F 39.2 °F 81% 29.36 in 6.2 mi West 12.7 mph - N/A   Scattered Clouds
2:30 PM 44.6 °F 38.1 °F 39.2 °F 81% 29.36 in 6.2 mi West 13.8 mph - N/A   Scattered Clouds
3:00 PM 46.4 °F 40.7 °F 37.4 °F 71% 29.36 in 6.2 mi West 12.7 mph - N/A   Partly Cloudy
3:30 PM 44.6 °F 38.4 °F 37.4 °F 76% 29.36 in 6.2 mi West 12.7 mph - N/A   Partly Cloudy
4:00 PM 42.8 °F 36.2 °F 35.6 °F 76% 29.39 in 6.2 mi West 12.7 mph - N/A   Partly Cloudy
4:30 PM 42.8 °F 37.0 °F 35.6 °F 76% 29.39 in 6.2 mi West 10.4 mph - N/A   Partly Cloudy
5:00 PM 41.0 °F 38.0 °F 35.6 °F 81% 29.39 in 6.2 mi West 4.6 mph - N/A   Partly Cloudy
5:30 PM 39.2 °F 33.0 °F 33.8 °F 81% 29.42 in 6.2 mi West 9.2 mph - N/A   Partly Cloudy
6:00 PM 40 °F - 35 °F 74% 29.45 in 19 mi West 8.9 mph - -   Partly Cloudy
6:00 PM 39.2 °F 33.0 °F 33.8 °F 81% 29.42 in 6.2 mi West 9.2 mph - N/A   Scattered Clouds
6:30 PM 39.2 °F 32.5 °F 35.6 °F 87% 29.44 in 6.2 mi West 10.4 mph - N/A   Partly Cloudy
7:00 PM 39.2 °F 32.0 °F 35.6 °F 87% 29.44 in 6.2 mi West 11.5 mph - N/A   Partly Cloudy
7:30 PM 39.2 °F 31.2 °F 35.6 °F 87% 29.44 in 6.2 mi West 13.8 mph - N/A   Partly Cloudy
8:00 PM 39.2 °F 32.0 °F 35.6 °F 87% 29.47 in 6.2 mi West 11.5 mph - N/A   Partly Cloudy
8:30 PM 39.2 °F 32.0 °F 35.6 °F 87% 29.47 in 6.2 mi West 11.5 mph - N/A   Scattered Clouds
9:00 PM 37.4 °F 29.8 °F 35.6 °F 93% 29.50 in 6.2 mi West 11.5 mph - N/A   Partly Cloudy
9:30 PM 37.4 °F 29.3 °F 35.6 °F 93% 29.50 in - West 12.7 mph - N/A   Clear
10:00 PM 37.4 °F 30.3 °F 35.6 °F 93% 29.53 in - West 10.4 mph - N/A   Clear
10:30 PM 35.6 °F 27.1 °F 35.6 °F 100% 29.53 in - West 12.7 mph - N/A   Clear
11:00 PM 35.6 °F 27.1 °F 35.6 °F 100% 29.56 in - West 12.7 mph - N/A   Clear
11:30 PM 35.6 °F 27.1 °F 35.6 °F 100% 29.56 in - West 12.7 mph - N/A   Clear